ブランパン彗星

289P/Blanpain (2009)

English version
Home page
Updated on July 28, 2013

---------------------------------------------------------------------

・ プロフィール

・ 軌道要素

Epoch 2009 May 9.0 TT = JDT 2454960.5
T 2009 Apr. 30.58486 TT                                 MPC
q   0.9651259            (2000.0)            P               Q
n   0.18497204     Peri.    9.80726     +0.19556102     -0.97599437
a   3.0506941      Node    68.96436     +0.89266428     +0.13667555
e   0.6836373      Incl.    5.89549     +0.40608666     +0.16957236
P   5.33
From 275 observations 1819 Dec. 14-2013 July 6, mean residual 0".77.
   Assumed non-gravitational parameters A1 = +0.10 +/- 0.00,
   A2 = -0.0054 +/- 0.0001 due to S. Nakano.

・ 光度変化

        H = 20.5  G = 0.15

---------------------------------------------------------------------

軌道要素はM.P.E.C. 2013-N21に掲載されたものです。
光度グラフはComet for Windowsで作成したものです。

---------------------------------------------------------------------

Copyright(C) Seiichi Yoshida (comet@aerith.net). All rights reserved.